Orbital Elements at Epoch 2459000.5 (2020-May-31.0) TDB
Reference: JPL 24 (heliocentric ecliptic J2000)
Element | Value | Uncertainty (1-sigma) | Units |
e | .1968020690448359 | 5.2868e-08 | |
a | 3.122486601394273 | 2.3617e-08 | au |
q | 2.507974777675102 | 1.5968e-07 | au |
i | 20.64539239782033 | 5.6135e-06 | deg |
node | 178.6902478054035 | 1.141e-05 | deg |
peri | 204.8455177789652 | 1.4911e-05 | deg |
M | 180.3762212266321 | 1.1659e-05 | deg |
tp | 2460006.066113828650 (2023-Mar-02.56611383) | 7.1977e-05 | TDB |
period | 2015.344535397265 5.52 | 2.2864e-05 6.26e-08 | d yr |
n | .1786295066064407 | 2.0266e-09 | deg/d |
Q | 3.736998425113444 | 2.8264e-08 | au |
|
| | Orbit Determination Parameters
Additional Information
|